User: anonymous   Login
Location: Brede
(50.9167°N, 0.6000°E)
Time: 22:46:01
(UTC+00:00)
Language:

Transit 2A Rocket - Orbit

View from above orbital plane
View from above orbital plane
View from above satellite
View from above satellite

Ground track
Ground track

The orbit data is extracted from the following two-line orbital elements,

1    47U 60007C   20330.53063888  .00000065  00000-0  39475-4 0  9996
2    47  66.6662  84.2712 0228807 187.2889 172.4873 14.42114577158348
Epoch (UTC): 25 November 2020 12:44:07
Eccentricity: 0.0228807
inclination: 66.6662°
perigee height: 588 km
apogee height: 914 km
right ascension of ascending node: 84.2712°
argument of perigee: 187.2889°
revolutions per day: 14.42114577
mean anomaly at epoch: 172.4873°
orbit number at epoch: 15834

The dashed part of the orbit path shows where the satellite is in the earth's shadow,  

DLR